Location: Newark
(31.5350°N, 35.0986°E)
Time: 12:48:54
(UTC+00:00)

X-37B - Visible Passes

Search period start: 29 September 2020 00:00
Search period end: 09 October 2020 00:00
Orbit: 386 x 387 km, 45.0° (Epoch: 18 September)

Date Brightness Start Highest point End Pass type
(mag) Time Alt. Az. Time Alt. Az. Time Alt. Az.
29 Sep 3.1 17:19:11 10° SW 17:20:04 17° SW 17:20:04 17° SW visible
30 Sep 1.3 16:20:55 10° SSW 16:23:50 35° SE 16:24:52 27° E visible
01 Oct 1.6 16:58:47 10° WSW 17:01:49 43° NNW 17:01:49 43° NNW visible
02 Oct 0.5 16:00:04 10° SW 16:03:13 85° SE 16:06:19 11° NE visible
02 Oct 4.0 17:38:12 10° WNW 17:38:37 12° NW 17:38:37 12° NW visible
03 Oct 2.7 16:38:45 10° W 16:41:22 23° NNW 16:42:58 16° NNE visible
04 Oct 1.6 15:39:39 10° WSW 15:42:42 43° NNW 15:45:44 10° NE visible
04 Oct 3.7 17:19:05 10° NNW 17:19:28 10° NNW 17:19:28 10° NNW visible
05 Oct 3.2 16:19:04 10° WNW 16:21:02 15° NNW 16:22:59 10° NNE visible
07 Oct 3.4 15:59:57 10° NNW 16:00:47 11° NNW 16:01:34 10° N visible
